Location: D�rnast
(49.6426°N, 11.9755°E)
Time: 05:56:58
(UTC+00:00)

BlueWalker 3 - Pass Details

Date: 03 December 2022
Orbit: 499 x 517 km, 53.2° (Epoch: 28 January)

Event Time Altitude Azimuth Distance (km) Brightness Sun altitude
Rises 17:14:33 0° 284° (WNW) 2,632 6.7 -18.7°
Reaches altitude 10° 17:16:48 10° 290° (WNW) 1,741 5.5 -19.0°
Maximum altitude 17:20:40 51° 7° (N) 648 2.3 -19.7°
Enters shadow 17:21:02 49° 30° (NNE) 667 2.2 -19.7°
